TimeCST,TemperatureF,Dew PointF,Humidity,Sea Level PressureIn,VisibilityMPH,Wind Direction,Wind SpeedMPH,Gust SpeedMPH,PrecipitationIn,Events,Conditions,WindDirDegrees,DateUTC
12:00 AM,-43,-51,45,29.81,15,WNW,10.4,,,Snow,Snow,300,2013-01-09 06:00:00
12:00 AM,-41.8,-50.8,60,29.81,15.0,WNW,10.4,-,N/A,,Clear,290,2013-01-09 06:00:00
1:00 AM,-41.8,-50.8,60,29.82,15.0,WNW,11.5,-,N/A,,Clear,290,2013-01-09 07:00:00
2:00 AM,-43.6,-50.8,67,29.84,15.0,WNW,11.5,-,N/A,,Clear,290,2013-01-09 08:00:00
3:00 AM,-41.8,-50.8,60,29.85,15.0,WNW,12.7,-,N/A,,Clear,290,2013-01-09 09:00:00
4:00 AM,-43.6,-50.8,67,29.86,15.0,WNW,12.7,-,N/A,,Clear,290,2013-01-09 10:00:00
5:00 AM,-41.8,-50.8,60,29.87,15.0,WNW,10.4,-,N/A,,Clear,290,2013-01-09 11:00:00
6:00 AM,-43,-51,42,29.88,15,WNW,13.8,,,Snow,Snow,290,2013-01-09 12:00:00
6:00 AM,-43.6,-50.8,67,29.88,15.0,WNW,13.8,-,N/A,,Clear,290,2013-01-09 12:00:00
7:00 AM,-43.6,-50.8,67,29.88,15.0,WNW,12.7,-,N/A,,Clear,290,2013-01-09 13:00:00
8:00 AM,-43.6,-50.8,67,29.89,15.0,West,10.4,-,N/A,,Clear,280,2013-01-09 14:00:00
9:00 AM,-43.6,-50.8,67,29.89,15.0,West,11.5,-,N/A,,Partly Cloudy,280,2013-01-09 15:00:00
10:00 AM,-41.8,-50.8,60,29.90,15.0,WNW,15.0,-,N/A,,Partly Cloudy,290,2013-01-09 16:00:00
11:00 AM,-43.6,-50.8,67,29.91,15.0,WNW,12.7,-,N/A,,Partly Cloudy,290,2013-01-09 17:00:00
12:00 PM,-42,-50,42,29.90,15,WNW,11.5,,,Snow,Snow,300,2013-01-09 18:00:00
12:00 PM,-41.8,-50.8,60,29.90,15.0,WNW,11.5,-,N/A,,Partly Cloudy,300,2013-01-09 18:00:00
1:00 PM,-41.8,-50.8,60,29.91,15.0,West,11.5,-,N/A,,Partly Cloudy,280,2013-01-09 19:00:00
2:00 PM,-41.8,-49.0,67,29.91,15.0,NW,11.5,-,N/A,,Partly Cloudy,310,2013-01-09 20:00:00
3:00 PM,-41.8,-50.8,60,29.92,15.0,WNW,12.7,-,N/A,,Partly Cloudy,300,2013-01-09 21:00:00
4:00 PM,-41.8,-50.8,60,29.94,15.0,WNW,12.7,-,N/A,,Clear,290,2013-01-09 22:00:00
5:00 PM,-41.8,-50.8,60,29.95,15.0,West,10.4,-,N/A,,Clear,280,2013-01-09 23:00:00
6:00 PM,-42,-50,42,29.96,15,West,12.7,,,Snow,Snow,280,2013-01-10 00:00:00
6:00 PM,-41.8,-50.8,60,29.96,15.0,West,11.5,-,N/A,,Clear,280,2013-01-10 00:00:00
7:00 PM,-41.8,-50.8,60,29.96,15.0,WNW,15.0,-,N/A,,Clear,290,2013-01-10 01:00:00
8:00 PM,-41.8,-50.8,60,29.96,15.0,WNW,13.8,-,N/A,,Clear,290,2013-01-10 02:00:00
9:00 PM,-43.6,-50.8,67,29.98,15.0,WNW,13.8,-,N/A,,Clear,290,2013-01-10 03:00:00
10:00 PM,-41.8,-50.8,60,29.99,15.0,WNW,13.8,-,N/A,,Clear,300,2013-01-10 04:00:00
11:00 PM,-43.6,-52.6,60,30.01,15.0,West,8.1,-,N/A,,Clear,270,2013-01-10 05:00:00